AVA9402 SKPS-SKBO

Flight info

Callsign AVA9402
Flight time 0h 52m
Altitude 37000
Route TITGU DCT ESARO DCT GIR GIR4W
Aircraft A320/M-SDE3FGHIRWY/LB1

Departure

Time 2026-04-24 14:05
Airport Antonio Nariño Airport (SKPS)

Arrival

Time 2026-04-24 14:57
Airport El Dorado International Airport (SKBO)
Time Latitude Longitude Altitude Speed Heading
2026-04-24 13:56 1.39576 -77.28983 5908 ft 0 kts 105°
2026-04-24 13:57 1.39579 -77.28995 5908 ft 2 kts 105°
2026-04-24 13:57 1.39583 -77.29010 5908 ft 2 kts 94°
2026-04-24 13:57 1.39580 -77.29026 5908 ft 2 kts 29°
2026-04-24 13:58 1.39568 -77.29031 5908 ft 0 kts 16°
2026-04-24 14:00 1.39581 -77.29027 5908 ft 3 kts 16°
2026-04-24 14:00 1.39640 -77.29016 5907 ft 12 kts 359°
2026-04-24 14:00 1.39688 -77.29073 5904 ft 11 kts 331°
2026-04-24 14:01 1.39789 -77.29061 5897 ft 24 kts 15°
2026-04-24 14:01 1.39983 -77.29014 5888 ft 31 kts 16°
2026-04-24 14:01 1.40208 -77.28951 5875 ft 36 kts 15°
2026-04-24 14:01 1.40433 -77.28892 5874 ft 25 kts 15°
2026-04-24 14:02 1.40564 -77.28856 5860 ft 16 kts 14°
2026-04-24 14:02 1.40613 -77.28857 5851 ft 5 kts 11°
2026-04-24 14:02 1.40611 -77.28844 5852 ft 0 kts 140°
2026-04-24 14:02 1.40605 -77.28845 5852 ft 4 kts 184°
2026-04-24 14:03 1.40568 -77.28854 5858 ft 4 kts 195°
2026-04-24 14:03 1.40563 -77.28856 5859 ft 0 kts 195°
2026-04-24 14:04 1.40470 -77.28881 5859 ft 51 kts 195°
2026-04-24 14:04 1.39847 -77.29044 5895 ft 130 kts 195°
2026-04-24 14:04 1.38786 -77.29336 6186 ft 175 kts 195°
2026-04-24 14:05 1.37544 -77.29628 7047 ft 188 kts 193°
2026-04-24 14:05 1.36298 -77.29891 7735 ft 184 kts 181°
2026-04-24 14:05 1.35107 -77.29436 8021 ft 194 kts 129°
2026-04-24 14:05 1.34737 -77.28282 9176 ft 168 kts 83°
2026-04-24 14:06 1.35189 -77.27189 9531 ft 183 kts 54°
2026-04-24 14:06 1.35959 -77.26117 9858 ft 195 kts 52°
2026-04-24 14:06 1.36903 -77.25123 10298 ft 198 kts 34°
2026-04-24 14:06 1.38032 -77.24394 10903 ft 190 kts 31°
2026-04-24 14:07 1.39167 -77.23660 11188 ft 203 kts 32°
2026-04-24 14:07 1.40407 -77.22843 11319 ft 224 kts 32°
2026-04-24 14:07 1.41771 -77.21943 11425 ft 247 kts 32°
2026-04-24 14:07 1.43278 -77.20951 11655 ft 272 kts 32°
2026-04-24 14:08 1.44905 -77.19885 11903 ft 295 kts 32°
2026-04-24 14:08 1.46696 -77.18715 12137 ft 319 kts 32°
2026-04-24 14:08 1.48626 -77.17455 12336 ft 343 kts 32°
2026-04-24 14:08 1.50692 -77.16109 12474 ft 366 kts 32°
2026-04-24 14:09 1.52844 -77.14709 13138 ft 369 kts 32°
2026-04-24 14:09 1.55002 -77.13307 13884 ft 371 kts 32°
2026-04-24 14:09 1.57149 -77.11914 14462 ft 375 kts 32°
2026-04-24 14:09 1.59349 -77.10488 15085 ft 379 kts 32°
2026-04-24 14:10 1.61567 -77.09050 15708 ft 382 kts 32°
2026-04-24 14:10 1.63805 -77.07598 16322 ft 385 kts 32°
2026-04-24 14:10 1.66059 -77.06131 16929 ft 388 kts 32°
2026-04-24 14:10 1.68330 -77.04652 17511 ft 392 kts 32°
2026-04-24 14:11 1.70622 -77.03161 18111 ft 395 kts 32°
2026-04-24 14:11 1.72937 -77.01655 18677 ft 398 kts 32°
2026-04-24 14:11 1.77609 -76.98619 19704 ft 403 kts 32°
2026-04-24 14:12 1.79933 -76.97111 20220 ft 405 kts 32°
2026-04-24 14:12 1.82295 -76.95577 20745 ft 406 kts 32°
2026-04-24 14:12 1.84668 -76.94033 21265 ft 408 kts 33°
2026-04-24 14:12 1.87051 -76.92482 21783 ft 410 kts 33°
2026-04-24 14:13 1.89447 -76.90925 22286 ft 412 kts 33°
2026-04-24 14:13 1.91857 -76.89360 22756 ft 414 kts 33°
2026-04-24 14:13 1.94280 -76.87786 23200 ft 417 kts 33°
2026-04-24 14:13 1.96717 -76.86204 23656 ft 419 kts 33°
2026-04-24 14:14 1.99140 -76.84630 24034 ft 422 kts 33°
2026-04-24 14:14 2.01606 -76.83027 24416 ft 424 kts 33°
2026-04-24 14:14 2.06574 -76.79797 25150 ft 428 kts 33°
2026-04-24 14:15 2.09082 -76.78167 25489 ft 431 kts 33°
2026-04-24 14:15 2.11578 -76.76546 25831 ft 433 kts 34°
2026-04-24 14:15 2.14110 -76.74902 26181 ft 435 kts 34°
2026-04-24 14:15 2.16651 -76.73249 26529 ft 438 kts 34°
2026-04-24 14:16 2.19180 -76.71602 26867 ft 440 kts 34°
2026-04-24 14:16 2.21751 -76.69929 27217 ft 442 kts 34°
2026-04-24 14:16 2.24340 -76.68247 27555 ft 445 kts 34°
2026-04-24 14:17 2.29549 -76.64858 28250 ft 449 kts 34°
2026-04-24 14:17 2.32174 -76.63152 28578 ft 451 kts 34°
2026-04-24 14:17 2.37333 -76.59548 29247 ft 453 kts 43°
2026-04-24 14:18 2.39624 -76.57397 29677 ft 451 kts 45°
2026-04-24 14:18 2.41893 -76.55239 30139 ft 450 kts 45°
2026-04-24 14:18 2.44125 -76.53116 30544 ft 448 kts 45°
2026-04-24 14:18 2.46384 -76.50968 30916 ft 447 kts 45°
2026-04-24 14:19 2.48638 -76.48824 31270 ft 447 kts 45°
2026-04-24 14:19 2.50885 -76.46686 31636 ft 446 kts 46°
2026-04-24 14:19 2.53131 -76.44549 32003 ft 445 kts 46°
2026-04-24 14:19 2.55375 -76.42414 32373 ft 445 kts 46°
2026-04-24 14:20 2.57612 -76.40289 32747 ft 444 kts 46°
2026-04-24 14:20 2.59848 -76.38160 33126 ft 443 kts 46°
2026-04-24 14:20 2.62078 -76.36039 33490 ft 442 kts 46°
2026-04-24 14:20 2.64270 -76.33951 33876 ft 441 kts 46°
2026-04-24 14:21 2.66491 -76.31838 34257 ft 440 kts 46°
2026-04-24 14:21 2.68707 -76.29731 34582 ft 439 kts 46°
2026-04-24 14:21 2.70919 -76.27629 34909 ft 438 kts 46°
2026-04-24 14:21 2.73127 -76.25531 35236 ft 438 kts 46°
2026-04-24 14:22 2.75331 -76.23436 35558 ft 437 kts 46°
2026-04-24 14:22 2.77534 -76.21344 35878 ft 436 kts 46°
2026-04-24 14:22 2.81888 -76.17203 36519 ft 434 kts 46°
2026-04-24 14:23 2.84074 -76.15119 36800 ft 434 kts 46°
2026-04-24 14:23 2.86263 -76.13037 37066 ft 434 kts 46°
2026-04-24 14:23 2.88455 -76.10956 37186 ft 435 kts 46°
2026-04-24 14:24 2.92841 -76.06797 37215 ft 434 kts 46°
2026-04-24 14:24 2.97216 -76.02641 37218 ft 434 kts 46°
2026-04-24 14:25 3.01572 -75.98503 37226 ft 434 kts 46°
2026-04-24 14:25 3.05949 -75.94348 37232 ft 434 kts 47°
2026-04-24 14:26 3.10326 -75.90194 37241 ft 434 kts 46°
2026-04-24 14:26 3.14702 -75.86033 37242 ft 434 kts 47°
2026-04-24 14:27 3.19144 -75.81804 37237 ft 447 kts 46°
2026-04-24 14:27 3.23659 -75.77515 37231 ft 452 kts 46°
2026-04-24 14:28 3.28222 -75.73184 37222 ft 452 kts 47°
2026-04-24 14:28 3.32791 -75.68843 37219 ft 453 kts 46°
2026-04-24 14:29 3.37356 -75.64499 37209 ft 453 kts 46°
2026-04-24 14:29 3.41893 -75.60182 37201 ft 453 kts 46°
2026-04-24 14:30 3.45723 -75.56538 37203 ft 453 kts 46°
2026-04-24 14:30 3.51033 -75.51479 37191 ft 454 kts 46°
2026-04-24 14:31 3.55611 -75.47135 37186 ft 454 kts 46°
2026-04-24 14:31 3.60195 -75.42780 37182 ft 454 kts 46°
2026-04-24 14:32 3.64742 -75.38446 37179 ft 455 kts 46°
2026-04-24 14:32 3.69332 -75.34083 37180 ft 455 kts 46°
2026-04-24 14:33 3.73923 -75.29722 37175 ft 455 kts 46°
2026-04-24 14:33 3.78482 -75.25386 37177 ft 455 kts 46°
2026-04-24 14:34 3.83067 -75.21009 37177 ft 456 kts 46°
2026-04-24 14:34 3.87662 -75.16629 36893 ft 457 kts 46°
2026-04-24 14:34 3.89968 -75.14434 36642 ft 457 kts 46°
2026-04-24 14:35 3.92273 -75.12240 36398 ft 457 kts 46°
2026-04-24 14:35 3.94579 -75.10047 36152 ft 458 kts 46°
2026-04-24 14:35 3.96885 -75.07851 35910 ft 458 kts 46°
2026-04-24 14:35 3.99167 -75.05676 35638 ft 459 kts 46°
2026-04-24 14:36 4.01492 -75.03461 34744 ft 465 kts 46°
2026-04-24 14:36 4.03842 -75.01221 33800 ft 465 kts 46°
2026-04-24 14:36 4.06175 -74.99000 32697 ft 460 kts 45°
2026-04-24 14:36 4.08470 -74.96814 31666 ft 453 kts 45°
2026-04-24 14:37 4.10739 -74.94651 30620 ft 448 kts 45°
2026-04-24 14:37 4.12990 -74.92506 29412 ft 445 kts 45°
2026-04-24 14:37 4.15274 -74.90411 28195 ft 446 kts 40°
2026-04-24 14:37 4.17764 -74.88633 27039 ft 449 kts 32°
2026-04-24 14:38 4.20556 -74.87189 25855 ft 452 kts 23°
2026-04-24 14:38 4.23577 -74.86159 24801 ft 464 kts 14°
2026-04-24 14:38 4.26750 -74.85574 23894 ft 464 kts
2026-04-24 14:38 4.29956 -74.85161 22873 ft 465 kts
2026-04-24 14:39 4.33132 -74.84745 22482 ft 452 kts
2026-04-24 14:39 4.36188 -74.84339 22353 ft 434 kts
2026-04-24 14:39 4.39124 -74.83948 22245 ft 417 kts
2026-04-24 14:39 4.41947 -74.83574 22145 ft 402 kts
2026-04-24 14:40 4.44673 -74.83215 21958 ft 390 kts
2026-04-24 14:40 4.47341 -74.82865 21618 ft 383 kts
2026-04-24 14:40 4.49936 -74.82524 21220 ft 380 kts
2026-04-24 14:40 4.52546 -74.82180 20792 ft 377 kts
2026-04-24 14:41 4.55139 -74.81841 20376 ft 374 kts
2026-04-24 14:41 4.57711 -74.81505 19964 ft 372 kts
2026-04-24 14:41 4.60275 -74.81167 19543 ft 370 kts
2026-04-24 14:41 4.62822 -74.80829 19130 ft 369 kts
2026-04-24 14:42 4.64504 -74.80605 18856 ft 368 kts
2026-04-24 14:42 4.67893 -74.80156 18229 ft 366 kts
2026-04-24 14:42 4.70399 -74.79825 17636 ft 368 kts
2026-04-24 14:42 4.72914 -74.79492 17365 ft 360 kts
2026-04-24 14:43 4.75355 -74.79170 17236 ft 348 kts
2026-04-24 14:43 4.77734 -74.79099 17062 ft 338 kts 354°
2026-04-24 14:43 4.80036 -74.79405 16866 ft 331 kts 351°
2026-04-24 14:43 4.82307 -74.79729 16867 ft 329 kts 351°
2026-04-24 14:44 4.84573 -74.80051 16873 ft 329 kts 351°
2026-04-24 14:44 4.86833 -74.80372 16870 ft 329 kts 351°
2026-04-24 14:44 4.89099 -74.80693 16845 ft 329 kts 351°
2026-04-24 14:44 4.91363 -74.81014 16837 ft 329 kts 351°
2026-04-24 14:45 4.93607 -74.81270 16811 ft 329 kts 358°
2026-04-24 14:45 4.95890 -74.81084 16799 ft 330 kts 11°
2026-04-24 14:45 4.98084 -74.80398 16693 ft 332 kts 25°
2026-04-24 14:45 4.99967 -74.79088 16438 ft 331 kts 45°
2026-04-24 14:46 5.01275 -74.77205 16190 ft 330 kts 66°
2026-04-24 14:46 5.01831 -74.74995 15958 ft 328 kts 87°
2026-04-24 14:46 5.01581 -74.72740 15732 ft 326 kts 107°
2026-04-24 14:46 5.00871 -74.70581 15510 ft 325 kts 109°
2026-04-24 14:47 5.00157 -74.68435 15299 ft 324 kts 109°
2026-04-24 14:47 4.99447 -74.66294 15076 ft 323 kts 109°
2026-04-24 14:47 4.98753 -74.64189 14875 ft 321 kts 109°
2026-04-24 14:47 4.98072 -74.62121 14848 ft 301 kts 109°
2026-04-24 14:48 4.97441 -74.60204 14876 ft 280 kts 109°
2026-04-24 14:48 4.96843 -74.58397 14880 ft 266 kts 109°
2026-04-24 14:48 4.96276 -74.56687 14884 ft 253 kts 109°
2026-04-24 14:48 4.95734 -74.55050 14900 ft 238 kts 109°
2026-04-24 14:49 4.95233 -74.53534 14892 ft 220 kts 109°
2026-04-24 14:49 4.94770 -74.52132 14889 ft 204 kts 109°
2026-04-24 14:49 4.94345 -74.50850 14880 ft 191 kts 113°
2026-04-24 14:49 4.93680 -74.49721 14892 ft 192 kts 124°
2026-04-24 14:50 4.92898 -74.48534 14909 ft 212 kts 124°
2026-04-24 14:50 4.92075 -74.47281 14909 ft 218 kts 124°
2026-04-24 14:50 4.91266 -74.46046 14915 ft 219 kts 124°
2026-04-24 14:50 4.90487 -74.44692 14920 ft 219 kts 117°
2026-04-24 14:51 4.89827 -74.43317 14927 ft 220 kts 116°
2026-04-24 14:51 4.89180 -74.41931 14933 ft 220 kts 115°
2026-04-24 14:51 4.88540 -74.40556 14863 ft 221 kts 115°
2026-04-24 14:51 4.87893 -74.39167 14684 ft 219 kts 115°
2026-04-24 14:52 4.87247 -74.37784 14514 ft 218 kts 115°
2026-04-24 14:52 4.86604 -74.36404 14298 ft 219 kts 115°
2026-04-24 14:52 4.85972 -74.35050 13970 ft 219 kts 115°
2026-04-24 14:52 4.85326 -74.33670 13620 ft 218 kts 115°
2026-04-24 14:53 4.84670 -74.32303 13269 ft 218 kts 120°
2026-04-24 14:53 4.83661 -74.31161 12753 ft 224 kts 142°
2026-04-24 14:53 4.82433 -74.30188 12179 ft 232 kts 142°
2026-04-24 14:53 4.81144 -74.29170 11603 ft 239 kts 142°
2026-04-24 14:54 4.79841 -74.28144 11195 ft 236 kts 142°
2026-04-24 14:54 4.78683 -74.27007 10858 ft 231 kts 127°
2026-04-24 14:54 4.77733 -74.25746 10598 ft 223 kts 127°
2026-04-24 14:54 4.76812 -74.24529 10347 ft 215 kts 127°
2026-04-24 14:55 4.76225 -74.23755 10175 ft 205 kts 127°
2026-04-24 14:55 4.75144 -74.22326 9825 ft 180 kts 127°
2026-04-24 14:55 4.74418 -74.21367 9595 ft 167 kts 127°
2026-04-24 14:55 4.73729 -74.20458 9360 ft 162 kts 127°
2026-04-24 14:56 4.73065 -74.19580 9126 ft 159 kts 127°
2026-04-24 14:56 4.72400 -74.18702 8885 ft 157 kts 126°
2026-04-24 14:56 4.71740 -74.17830 8641 ft 156 kts 126°
2026-04-24 14:56 4.71086 -74.16967 8424 ft 156 kts 126°
2026-04-24 14:57 4.70492 -74.16176 8366 ft 111 kts 127°
2026-04-24 14:57 4.70202 -74.15793 8363 ft 40 kts 127°
2026-04-24 14:57 4.70046 -74.15587 8364 ft 36 kts 127°
2026-04-24 14:57 4.69899 -74.15395 8366 ft 34 kts 127°
2026-04-24 14:58 4.69769 -74.15220 8365 ft 29 kts 121°
2026-04-24 14:58 4.69714 -74.15038 8365 ft 25 kts 98°
2026-04-24 14:58 4.69702 -74.14880 8365 ft 17 kts 69°
2026-04-24 14:58 4.69778 -74.14790 8366 ft 17 kts 37°
2026-04-24 14:59 4.69836 -74.14745 8366 ft 8 kts 37°
2026-04-24 14:59 4.69842 -74.14699 8366 ft 8 kts 122°
2026-04-24 14:59 4.69805 -74.14684 8366 ft 5 kts 211°
2026-04-24 14:59 4.69782 -74.14702 8366 ft 3 kts 217°
2026-04-24 15:00 4.69779 -74.14703 8366 ft 0 kts 217°